Showing default

IRIDIUM 139, 42963

Orbit data source: Space-Track

IRIDIUM 139, 42963 is a payload satellite owned by Iridium (US) in LEO that was launched on Mon, 09 Oct 2017 UTC via an FALCON 9 launch vehicle from the Air Force Western Test Range (AFWTR). Payloads include a variety of satellites, spacecraft, and rockets equipped with specific instruments for various scientific and technological missions. These include communications satellites like Starlink; space stations such as the ISS; scientific satellites like the Hubble; Earth observation satellites from companies like Planet Labs, Umbra, and HawkEye 360; GPS; miniature CubeSats for education and research; and military/defense satellites.

Loading next visibility...
IRIDIUM 139 details
Identifier
42963, 2017-061J
Orbit
LEO
Last TLE update12 hours ago
Origin
Flag of USIridium (US)
ManufacturerOATK SSG Gilbert
MissionOperational Commercial Communications
Bus & MotorELITEBUS, Unknown motor
Mass860 kg wet, 700 kg dry
Launch date (UTC)
2017-10-09 (7 years ago)
Launch vehicle
FALCON 9
Launch site
Air Force Western Test Range (AFWTR)
Object type
Payload
Rocket body
Debris
Shape & HBRTrap Box + 2 Pan, 9.4 m
Radar Cross Section14.423 m², Large (>1 m²)

Expand to show TLE details & history

TLE from 12 hours ago
0 IRIDIUM 139
1 42963U 17061J   24361.41438173 -.00000110  00000-0 -46518-4 0  9998
2 42963  86.3973 249.9917 0001600  83.4151 276.7226 14.34217035377764
Epoch: 2024-12-26T09:56Z
Definitive object data (Epoch: 2024-12-26T09:56:42.581Z)
Latitude-0.00011°
Longitude5.42015°
Altitude780.587 km
Speed7.464 km/s
True Right ascension16h 39m 58s
True Declination0° 00' 00"
Sunlit
Object was in daylight at TLE epoch
Visualization TLE readout
Latitude13.88099°
Longitude6.10172°
Altitude779.552 km
Speed7.465 km/s
Apparent Right ascension13h 54m 26s
Apparent Declination-19° 28' 47"
Sunlit
Object is in daylight
Visualization observer readout
Local Sidereal Time21:06:52
Azimuth265.677° W
Elevation-26.022°
Doppler factor1
Orbital elements
Apogee altitude775.778 km
Perigee altitude773.49 km
Semi-major axis7,152.771 km
Eccentricity0.00016
Inclination86.3973°
RAAN249.9917°
Arg. of periapsis83.4151°
True anomaly276.70439°
Mean anomaly276.7226°
Eccentric anomaly276.7135°
Mean motion3.58783 °/min
BSTAR-0.000046518
Orbital period100.34 mins
Loading maneuver chart data...
Loading historical data...
Loading historical data...
Loading historical data...
Loading historical data...
Loading historical data...
Loading historical data...
Loading historical data...

IRIDIUM 139 Visibility forecast

Observer location: undefined°, undefined

Span
Click to sort rows by Start time (UTC) header in descending order
Start Az.
Max El. time (UTC)
Max El. Az.
Max El.
End time (UTC)
End Az.
10 mins2024-12-27 04:55:50.040Z358.107° N2024-12-27 05:00:50.040Z66.661° ENE44.965°2024-12-27 05:05:50.040Z177.953° S
6 mins2024-12-27 16:13:50.040Z117.31° SE2024-12-27 16:16:50.040Z75.107° E19.159°2024-12-27 16:19:50.040Z37.476° NE
7 mins2024-12-27 17:53:50.040Z216.941° SW2024-12-27 17:56:50.040Z276.71° WNW34.182°2024-12-27 18:00:50.040Z344.069° N
|